This is the latest recevied weather packets stored in our database for station/object HS5BOG-13. If no packets are shown the sender has not sent any weather packets the latest 10 day(s).
| Time | Temp. | Humidity | Pressure | Rain* | Wind** | Luminosity | Snow |
|---|---|---|---|---|---|---|---|
| 1778143190 | 32.22° C | 62% | 987.3 hPa | - | - | - | - |
| 1778142585 | 32.22° C | 62% | 987.2 hPa | - | - | - | - |
| 1778141978 | 32.22° C | 63% | 987.3 hPa | - | - | - | - |
| 1778141373 | 31.67° C | 64% | 987.5 hPa | - | - | - | - |
| 1778140767 | 31.67° C | 65% | 987.8 hPa | - | - | - | - |
| 1778140162 | 31.67° C | 64% | 988 hPa | - | - | - | - |
| 1778139556 | 31.67° C | 62% | 988 hPa | - | - | - | - |
| 1778138951 | 32.22° C | 66% | 988.2 hPa | - | - | - | - |
| 1778138345 | 31.67° C | 64% | 988.2 hPa | - | - | - | - |
| 1778137740 | 31.67° C | 65% | 988.5 hPa | - | - | - | - |
| 1778137134 | 31.67° C | 68% | 988.7 hPa | - | - | - | - |
| 1778136529 | 32.22° C | 69% | 988.9 hPa | - | - | - | - |
| 1778135923 | 32.22° C | 66% | 989.4 hPa | - | - | - | - |
| 1778135317 | 32.22° C | 57% | 989.3 hPa | - | - | - | - |
| 1778134712 | 32.22° C | 57% | 989.6 hPa | - | - | - | - |
| 1778134106 | 32.78° C | 54% | 989.8 hPa | - | - | - | - |
| 1778133500 | 32.22° C | 64% | 990.1 hPa | - | - | - | - |
| 1778132895 | 31.67° C | 66% | 990 hPa | - | - | - | - |
| 1778132289 | 31.67° C | 65% | 990.1 hPa | - | - | - | - |
| 1778131684 | 31.67° C | 62% | 990.3 hPa | - | - | - | - |
| 1778131078 | 32.22° C | 66% | 990.3 hPa | - | - | - | - |
| 1778130472 | 31.67° C | 68% | 990.5 hPa | - | - | - | - |
| 1778129867 | 31.67° C | 67% | 990.7 hPa | - | - | - | - |
| 1778129261 | 31.67° C | 65% | 990.7 hPa | - | - | - | - |
| 1778128655 | 31.67° C | 67% | 991 hPa | - | - | - | - |
* Rain since midnight (hover to see other rain measurements)
** Current wind speed in m/s (hover to see current wind gust speed)